TimePDT,TemperatureF,Dew PointF,Humidity,Sea Level PressureIn,VisibilityMPH,Wind Direction,Wind SpeedMPH,Gust SpeedMPH,PrecipitationIn,Events,Conditions,WindDirDegrees,DateUTC
12:19 AM,64.4,60.8,88,29.98,4.0,ESE,8.1,-,0.11,Rain,Heavy Rain,120,2013-09-06 07:19:00
12:48 AM,62.6,60.8,94,29.99,4.0,ESE,5.8,-,0.32,Rain,Rain,120,2013-09-06 07:48:00
12:53 AM,63.0,59.0,87,29.99,4.0,ESE,6.9,-,0.35,Rain,Rain,120,2013-09-06 07:53:00
1:30 AM,62.6,60.8,94,29.99,4.0,Calm,Calm,-,N/A,Rain,Heavy Rain,0,2013-09-06 08:30:00
1:37 AM,62.6,59.0,88,29.99,2.5,Calm,Calm,-,N/A,Rain,Heavy Rain,0,2013-09-06 08:37:00
1:50 AM,62.6,60.8,94,29.98,3.0,ENE,3.5,-,0.36,Rain,Rain,70,2013-09-06 08:50:00
1:53 AM,63.0,60.1,90,29.99,4.0,East,3.5,-,0.36,Rain,Rain,90,2013-09-06 08:53:00
2:21 AM,62.6,59.0,88,29.96,7.0,SSE,4.6,-,0.08,Rain,Light Rain,160,2013-09-06 09:21:00
2:53 AM,63.0,59.0,87,29.96,7.0,SE,4.6,-,0.16,Rain,Rain,130,2013-09-06 09:53:00
3:53 AM,62.1,59.0,90,29.96,10.0,SE,5.8,-,0.06,Rain,Light Rain,130,2013-09-06 10:53:00
4:53 AM,63.0,59.0,87,29.96,10.0,ESE,3.5,-,0.01,,Overcast,110,2013-09-06 11:53:00
5:21 AM,62.6,59.0,88,29.96,10.0,SE,3.5,-,0.01,,Overcast,140,2013-09-06 12:21:00
5:36 AM,62.6,59.0,88,29.96,10.0,Calm,Calm,-,0.01,,Overcast,0,2013-09-06 12:36:00
5:53 AM,63.0,59.0,87,29.97,10.0,SE,4.6,-,0.01,,Overcast,130,2013-09-06 12:53:00
5:58 AM,62.6,59.0,88,29.97,10.0,SE,5.8,-,N/A,,Overcast,130,2013-09-06 12:58:00
6:53 AM,63.0,60.1,90,29.98,4.0,SE,4.6,-,0.00,,Overcast,140,2013-09-06 13:53:00
7:53 AM,63.0,60.1,90,30.00,7.0,SE,6.9,-,0.01,Rain,Light Rain,140,2013-09-06 14:53:00
8:53 AM,63.0,60.1,90,30.01,10.0,SE,5.8,-,0.05,Rain,Light Rain,130,2013-09-06 15:53:00
9:53 AM,64.0,60.1,87,30.03,8.0,SSE,3.5,-,0.04,Rain,Light Rain,150,2013-09-06 16:53:00
10:53 AM,64.0,60.1,87,30.03,8.0,Variable,4.6,-,0.01,Rain,Light Rain,0,2013-09-06 17:53:00
11:53 AM,66.0,61.0,84,30.05,10.0,Calm,Calm,-,0.02,Rain,Light Rain,0,2013-09-06 18:53:00
12:53 PM,66.0,60.1,81,30.05,10.0,Calm,Calm,-,0.00,,Overcast,0,2013-09-06 19:53:00
1:53 PM,69.1,61.0,75,30.05,10.0,SSE,6.9,-,N/A,,Overcast,150,2013-09-06 20:53:00
2:53 PM,70.0,60.1,71,30.06,10.0,SSE,6.9,-,N/A,,Mostly Cloudy,150,2013-09-06 21:53:00
3:53 PM,73.0,60.1,64,30.06,10.0,Variable,5.8,-,N/A,,Mostly Cloudy,0,2013-09-06 22:53:00
4:07 PM,73.4,59.0,61,30.06,10.0,SSW,6.9,-,N/A,,Scattered Clouds,210,2013-09-06 23:07:00
4:53 PM,72.0,60.1,66,30.07,10.0,SW,6.9,-,N/A,,Mostly Cloudy,220,2013-09-06 23:53:00
5:53 PM,70.0,60.1,71,30.07,10.0,SSW,8.1,-,N/A,,Mostly Cloudy,210,2013-09-07 00:53:00
6:53 PM,68.0,59.0,73,30.08,10.0,Variable,6.9,-,N/A,,Mostly Cloudy,0,2013-09-07 01:53:00
7:53 PM,66.0,57.0,73,30.09,10.0,SSE,5.8,-,N/A,,Mostly Cloudy,160,2013-09-07 02:53:00
8:53 PM,64.9,57.9,78,30.10,10.0,SSE,5.8,-,N/A,,Clear,150,2013-09-07 03:53:00
9:53 PM,64.9,59.0,81,30.10,10.0,SE,8.1,-,N/A,,Clear,140,2013-09-07 04:53:00
10:53 PM,64.9,60.1,84,30.12,10.0,ESE,4.6,-,N/A,,Scattered Clouds,120,2013-09-07 05:53:00
11:53 PM,64.0,59.0,84,30.12,10.0,SE,6.9,-,N/A,,Scattered Clouds,140,2013-09-07 06:53:00